Home   Weather   Adelaide   Past weeks

Flag for Australia Past Weather in Adelaide, South Australia, Australia — Yesterday and Last 2 Weeks

Now
63 °F

Broken clouds.


Feels Like: 63 °F
Forecast: 53 / 59 °F
Wind: 21 mph from West

Location: Adelaide Airport

Current Time: Apr 25, 2017 at 4:44:46 pm

Latest Report: Apr 25, 2017 at 4:00 pm


Visibility: N/A

Pressure: 29.89 "Hg

Humidity: 77%

Dew Point: 55 °F

Location of AdelaideLocation

Past Weather in Adelaide — Graph

°F

Adelaide Temperature Yesterday

Maximum temperature yesterday: 70 °F (at 12:00 am)
Minimum temperature yesterday: 59 °F (at 6:00 am)
Average temperature yesterday: 65 °F

High & Low Weather Summary for the Past Weeks

 TemperatureHumidityPressure
High88 °F (Apr 19, 1:00 pm)100% (Apr 11, 5:00 am)30.33 "Hg (Apr 11, 5:00 am)
Low48 °F (Apr 11, 5:00 am)18% (Apr 18, 3:00 pm)29.86 "Hg (Apr 25, 2:00 pm)
Average65 °F67%30.13 "Hg
* Reported Apr 10 2:30 pm — Apr 25 3:29 pm, Adelaide, Weather by CustomWeather, © 2017

Note: Actual official high and low records may vary slightly from our data, if they occured in-between our weather recording intervals... More about our weather records

Advertising

Adelaide Weather History for the Previous 24 Hours

Scroll right to see more
 ConditionsComfort  
Time TempWeatherWind HumidityBarometerVisibility
3:29 pm
Tue, Apr 25
63 °FScattered showers. Broken clouds.12 mph83%29.89 "HgN/A
3:12 pm63 °FSprinkles. Partly sunny.24 mph83%29.89 "Hg4 mi
2:30 pm68 °FScattered clouds.9 mph56%29.86 "HgN/A
2:00 pm68 °FPassing clouds.10 mph60%29.86 "HgN/A
1:30 pm68 °FPassing clouds.13 mph60%29.89 "HgN/A
1:00 pm68 °FPassing clouds.15 mph60%29.89 "HgN/A
12:30 pm68 °FScattered clouds.17 mph60%29.92 "HgN/A
12:00 pm66 °FScattered clouds.17 mph68%29.92 "HgN/A
11:00 am66 °FMild.15 mph68%29.92 "HgN/A
10:30 am66 °FScattered clouds.17 mph68%29.95 "HgN/A
9:30 am64 °FPartly sunny.14 mph78%29.95 "HgN/A
9:00 am66 °FScattered clouds.12 mph68%29.95 "HgN/A
8:00 am64 °FPartly sunny.12 mph73%29.92 "HgN/A
7:30 am63 °FPartly sunny.15 mph77%29.92 "HgN/A
7:00 am64 °FPassing clouds.16 mph73%29.92 "HgN/A
6:30 am64 °FPassing clouds.17 mph73%29.89 "HgN/A
5:30 am64 °FPassing clouds.13 mph78%29.89 "HgN/A
5:00 am63 °FPassing clouds.15 mph83%29.89 "HgN/A
4:30 am63 °FPassing clouds.16 mph83%29.89 "HgN/A
4:00 am63 °FPassing clouds.14 mph83%29.89 "HgN/A
3:30 am63 °FPassing clouds.15 mph77%29.89 "HgN/A
3:00 am63 °FPassing clouds.15 mph83%29.89 "HgN/A
2:30 am63 °FPassing clouds.17 mph77%29.89 "HgN/A
2:00 am64 °FPassing clouds.17 mph78%29.89 "HgN/A
1:30 am64 °FPassing clouds.15 mph78%29.89 "HgN/A
1:00 am64 °FPassing clouds.17 mph78%29.89 "HgN/A
12:30 am64 °FPartly cloudy.18 mph78%29.89 "HgN/A
12:00 am64 °FPartly cloudy.17 mph88%29.89 "HgN/A
11:30 pm
Mon, Apr 24
66 °FPassing clouds.16 mph78%29.89 "HgN/A
11:00 pm64 °FSprinkles. Passing clouds.13 mph88%29.89 "HgN/A
10:30 pm64 °FPassing clouds.13 mph88%29.89 "HgN/A
10:00 pm66 °FPassing clouds.13 mph83%29.92 "HgN/A
9:30 pm64 °FPassing clouds.7 mph94%29.92 "HgN/A
9:00 pm64 °FPassing clouds.7 mph88%29.92 "HgN/A
8:33 pm64 °FPassing clouds.6 mph88%29.92 "HgN/A
8:00 pm64 °FPassing clouds.8 mph94%29.92 "HgN/A
7:30 pm64 °FPassing clouds.7 mph88%29.92 "HgN/A
7:00 pm64 °FLight rain. Partly cloudy.9 mph88%29.92 "HgN/A
6:30 pm64 °FPassing clouds.9 mph88%29.92 "HgN/A
6:00 pm64 °FBroken clouds.13 mph94%29.92 "HgN/A
5:30 pm64 °FSprinkles. Partly sunny.16 mph94%29.92 "HgN/A
5:00 pm66 °FPartly sunny.12 mph83%29.92 "HgN/A
4:30 pm66 °FScattered showers. Broken clouds.14 mph88%29.92 "HgN/A
4:00 pm68 °FBroken clouds.10 mph83%29.92 "HgN/A
Weather by CustomWeather, © 2017

See weather overviewHow to use our weather pages